FLOCK 3M-2 (42998 NORAD) Tracking and Keplerian Element Data

This shows tracking and keplerian element data for the satellite.

Feedback or suggestion? Click here.




ElementValue
Catalog42998
NameFLOCK 3M-2
Epoch Orbit1613
Epoch Day46.22606021
Epoch Year2018
RAAN162.4909
Inclination97.3519
Eccentricity0.0014475
Argument of Perigee206.0387
Mean Anonmoly154.0121
Mean Motion15.18710641
Decay Rate1.125E-05
L11 42998U 17068M 18046.22606021 .00001125 00000-0 57317-4 0 9998
L22 42998 97.3519 162.4909 0014475 206.0387 154.0121 15.18710641 16135

Live tracking and technical data element details for FLOCK 3M-2 (NORAD 42998). FLOCK 3M-2 can be tracked NOW for your location showing map with azimuth and elevation plus other details from your city location.

Track the satellite on the map from your city or location and see movement details for azimuth, elevation, latitude, longitude, range, height, and movement on the map or in text.







IsCatalogInMostPopularTable: catalog: 42998, numindb: 167
Update: records affected: 1



GetName: 42998 FLOCK 3M-2

Hit Count: updated at: Fri, 16 Nov 2018 10:04:37 GMT